Preview of NWS' New Version of Forecast
This preview is not operational and should not be used for support decisions.

Regional Weather Roundup (RWR)

Issued by Little Rock, AR (LZK)

                            
812 
ASUS44 KLZK 221605
RWRLZK

WEATHER ROUNDUP FOR ARKANSAS
NATIONAL WEATHER SERVICE LITTLE ROCK AR
1100 AM CDT FRI JUN 22 2018

NOTE: "FAIR" INDICATES FEW OR NO CLOUDS BELOW 12,000 FEET WITH NO
SIGNIFICANT WEATHER AND/OR OBSTRUCTIONS TO VISIBILITY.

ARZ001-003-010-029-221700-
NORTHWEST ARKANSAS
  
CITY           SKY/WX    TMP DP  RH WIND       PRES   REMARKS
FAYETTEVILLE   MOSUNNY   76  64  66 NW6       29.88R                  
FORT SMITH     CLOUDY    81  65  58 W9        29.85S                  
HARRISON       MOSUNNY   77  61  57 NW10      29.85S                  
BENTONVILLE    CLOUDY    76  63  64 NW8       29.90R HAZE             
ROGERS         PTSUNNY   74  63  68 W9        29.89R                  
SILOAM SPGS    MOSUNNY   76  63  64 NW10      29.90R                  
HIGHFILL       MOSUNNY   77  61  57 W10       29.88S                  
SPRINGDALE     MOSUNNY   77  63  61 NW8G14    29.89R                  
$$

ARZ004-005-016-221700-
NORTH CENTRAL ARKANSAS
  
CITY           SKY/WX    TMP DP  RH WIND       PRES   REMARKS
BATESVILLE     PTSUNNY   80  63  55 NW8       29.82R                  
FLIPPIN        PTSUNNY   77  63  61 NW7       29.82F                  
MTN HOME       MOSUNNY   75  64  68 W7        29.82F                  
$$

ARZ040-041-221700-
WEST CENTRAL ARKANSAS
  
CITY           SKY/WX    TMP DP  RH WIND       PRES   REMARKS
MENA           CLOUDY    84  61  45 W3        29.88R                  
MOUNT IDA      CLOUDY    85  63  47 VRB6      29.84R HX  86           
$$

ARZ009-017-025-026-028-221700-
NORTHEAST ARKANSAS
  
CITY           SKY/WX    TMP DP  RH WIND       PRES   REMARKS
CORNING        FAIR      77  68  73 NW10      29.78R                  
JONESBORO      PTSUNNY   79  66  64 W13       29.80R                  
NEWPORT        FAIR      81  64  56 W10       29.81R                  
WALNUT RIDGE     N/A     78  64  61 W13       29.79R                  
BLYTHEVILLE    FAIR      77  64  64 W8        29.79R                  
NW BLYTHEVILLE MOSUNNY   79  64  61 W9        29.78                   
$$

ARZ022-023-033-042-044-221700-
CENTRAL ARKANSAS
  
CITY           SKY/WX    TMP DP  RH WIND       PRES   REMARKS
LITTLE ROCK    PTSUNNY   84  66  54 S8        29.81F HX  86           
N LITTLE ROCK    N/A     83  66  55 NW3       29.83S HX  85           
JACKSONVILLE   PTSUNNY   85  64  48 W7        29.81S HX  86           
CONWAY         SUNNY     84  64  51 NW7       29.81S HX  86           
SEARCY         FAIR      82  65  56 W6        29.82R                  
HOT SPRINGS    MOSUNNY   86  62  44 VRB6      29.84S HX  86           
RUSSELLVILLE   MOSUNNY   83  63  50 W10       29.81S                  
CLINTON        FAIR      81  63  54 N7G15     29.81F                  
$$

ARZ036-221700-
EAST ARKANSAS
  
CITY           SKY/WX    TMP DP  RH WIND       PRES   REMARKS
WEST MEMPHIS     N/A    N/A N/A N/A MISG      29.80R                  
$$

ARZ050-053-066-070-073-221700-
SOUTHWEST ARKANSAS
  
CITY           SKY/WX    TMP DP  RH WIND       PRES   REMARKS
ARKADELPHIA    CLOUDY    83  71  67 SW7       29.85S HX  87           
CAMDEN         CLOUDY    75  72  88 S3        29.85S                  
TEXARKANA      MOSUNNY   88  76  67 W16G24    29.86S HX  99           
EL DORADO      PTSUNNY   86  77  74 SW17G26   29.86F HX  97           
DE QUEEN       CLOUDY    84  75  74 VRB3      29.83R HX  92           
$$

ARZ056-057-069-221700-
SOUTHEAST ARKANSAS
  
CITY           SKY/WX    TMP DP  RH WIND       PRES   REMARKS
PINE BLUFF     FAIR      78  72  81 S16       29.84F                  
STUTTGART      FAIR      83  72  69 SW13      29.82F HX  88           
MONTICELLO     PTSUNNY   72  69  90 S7        29.86F                  

$$